EST,Max TemperatureF,Mean TemperatureF,Min TemperatureF,Max Dew PointF,MeanDew PointF,Min DewpointF,Max Humidity, Mean Humidity, Min Humidity, Max Sea Level PressureIn, Mean Sea Level PressureIn, Min Sea Level PressureIn, Max VisibilityMiles, Mean VisibilityMiles, Min VisibilityMiles, Max Wind SpeedMPH, Mean Wind SpeedMPH, Max Gust SpeedMPH,PrecipitationIn, CloudCover, Events, WindDirDegrees
2013-12-1,73,68,62,64,62,61,100,89,68,30.20,30.11,30.00,10,8,2,12,6,,0.00,8,,24
2013-12-2,73,67,61,63,58,51,100,80,49,29.99,29.93,29.84,10,6,1,14,3,,0.00,6,,311
2013-12-3,77,66,55,61,57,54,93,71,47,30.02,29.96,29.92,10,10,7,10,3,,0.00,2,,173
2013-12-4,80,70,61,65,62,59,93,76,52,30.12,30.06,30.00,10,10,10,10,4,,0.00,2,,191
2013-12-5,82,72,63,67,64,61,93,76,49,30.21,30.15,30.12,10,10,10,13,3,,0.00,0,,135
2013-12-6,84,75,66,69,66,64,100,81,53,30.21,30.16,30.12,10,8,0,15,4,,0.00,2,Fog,155
2013-12-7,82,74,66,68,64,58,96,76,44,30.27,30.22,30.17,10,10,9,7,4,,0.00,1,,168
2013-12-8,84,73,62,68,65,62,100,87,47,30.26,30.20,30.14,10,6,0,13,2,,0.00,2,Fog,131
2013-12-9,82,73,64,69,65,62,97,77,54,30.22,30.17,30.12,10,10,10,12,4,,0.01,1,,175
2013-12-10,82,73,64,69,63,60,93,72,46,30.22,30.15,30.09,10,10,10,13,8,20,0.00,3,,245
2013-12-11,81,71,61,66,60,53,88,73,54,30.28,30.23,30.18,10,10,10,14,9,18,0.00,4,,25
2013-12-12,70,62,55,60,48,28,93,65,24,30.35,30.29,30.23,10,10,3,17,9,23,0.00,4,,9
2013-12-13,73,62,51,56,51,44,86,68,46,30.30,30.23,30.16,10,10,10,16,5,18,0.00,1,,53
2013-12-14,81,71,61,70,64,55,90,77,58,30.14,30.05,29.96,10,10,9,16,7,25,0.00,5,Rain,154
2013-12-15,73,66,59,70,63,53,94,83,60,30.15,29.99,29.90,10,10,6,16,11,24,0.06,7,Rain-Thunderstorm,276
2013-12-16,64,56,48,52,46,42,83,70,43,30.26,30.19,30.13,10,10,10,10,7,,0.00,3,,7
2013-12-17,71,60,48,51,48,42,86,67,47,30.28,30.23,30.18,10,10,10,9,5,,0.00,0,,357
2013-12-18,70,60,50,49,42,37,92,58,33,30.32,30.27,30.23,10,10,10,13,4,,0.00,0,,3
2013-12-19,75,62,48,55,50,42,89,68,41,30.32,30.27,30.21,10,10,10,9,5,,0.00,0,,67
2013-12-20,82,68,53,62,57,52,97,72,44,30.25,30.19,30.14,10,10,9,14,3,20,0.00,1,,121
2013-12-21,84,74,63,70,66,61,100,82,53,30.18,30.13,30.06,10,9,2,15,7,23,0.00,1,,132
2013-12-22,84,75,66,70,67,65,97,77,53,30.17,30.14,30.11,10,10,7,17,8,26,0.01,1,,160
2013-12-23,84,74,64,72,68,64,100,84,53,30.20,30.15,30.10,10,7,0,16,6,22,0.00,4,Fog,185
2013-12-24,73,64,53,71,55,29,97,73,29,30.30,30.21,30.12,10,10,5,17,9,23,0.00,4,Rain,340
2013-12-25,73,60,48,56,48,38,90,65,43,30.29,30.23,30.19,10,10,10,15,6,22,0.00,1,,16
2013-12-26,77,67,57,60,57,55,97,85,56,30.25,30.20,30.13,10,8,0,17,7,,0.00,5,Fog,14
2013-12-27,70,65,60,63,61,57,94,86,75,30.29,30.24,30.20,10,10,8,15,9,17,0.00,7,,19
2013-12-28,75,70,64,70,67,63,100,90,71,30.25,30.16,30.05,10,9,2,16,8,21,0.11,6,Rain,98
2013-12-29,78,72,66,72,69,64,100,90,74,30.03,29.97,29.90,10,9,0,16,10,18,0.44,7,Fog-Rain,229
2013-12-30,70,64,57,64,57,47,97,84,49,30.23,30.12,30.02,10,10,9,9,5,,0.00,4,,349
2013-12-31,68,64,59,53,50,44,81,65,44,30.33,30.28,30.21,10,10,10,12,6,,0.00,2,,23